Location: Deuil
(48.9767°N, 2.3272°E)
Time: 02:33:44
(UTC+00:00)

Cosmos 2360 Rocket - Pass Details

Date: 27 May 2022
Orbit: 832 x 846 km, 71.0° (Epoch: 03 July)

Event Time Altitude Azimuth Distance (km) Brightness Sun altitude
Exits shadow 21:24:45 17° 138° (SE) 1,971 3.5 -12.7°
Maximum altitude 21:27:18 24° 102° (ESE) 1,676 3.4 -13.0°
Drops below altitude 10° 21:31:42 10° 51° (NE) 2,464 4.7 -13.3°
Sets 21:34:34 0° 38° (NE) 3,406 5.6 -13.6°
